DW9005 Weather Reports


time (UTC)temp
C
wind
direction
speed
KPH
gust
KPH
rain 1hr
cm
rain 24hr
cm
rain mn
cm
humidity
%
barometer
mb
20260905181516 35 0.0 0.0 0.00 0.00 0.00 57 1012.3
20260905180013 34 0.0 0.0 0.00 0.00 0.00 59 1012.6
20260905174555 33 0.0 0.0 0.00 0.00 0.00 62 1012.8
20260905173056 34 0.0 0.0 0.00 0.00 0.00 58 1013.0
20260905171542 34 0.0 0.0 0.00 0.00 0.00 60 1013.2
20260905170036 34 0.0 0.0 0.00 0.00 0.00 59 1013.5
20260905164517 33 0.0 0.0 0.00 0.00 0.00 64 1013.6
20260905163016 34 0.0 0.0 0.00 0.00 0.00 60 1013.7
20260905161556 33 0.0 0.0 0.00 0.00 0.00 62 1013.8
20260905160120 33 0.0 0.0 0.00 0.00 0.00 65 1013.8
20260905154532 32 0.0 0.0 0.00 0.00 0.00 69 1013.7
20260905153031 32 0.0 0.0 0.00 0.00 0.00 72 1013.8
20260905151510 31 0.0 0.0 0.00 0.00 0.00 71 1013.9
20260905150010 31 0.0 0.0 0.00 0.00 0.00 73 1014.0
20260905144548 30 0.0 0.0 0.00 0.00 0.00 74 1014.0
20260905143046 30 0.0 0.0 0.00 0.00 0.00 78 1014.1
20260905141524 -17 0.0 0.0 0.00 0.00 0.00 1014.2
20260905140018 -17 0.0 0.0 0.00 0.00 0.00 1014.3
20260905134621 -17 0.0 0.0 0.00 0.00 0.00 1014.3
20260905133056 -17 0.0 0.0 0.00 0.00 0.00 1014.4
20260905131549 -17 0.0 0.0 0.00 0.00 0.00 1014.5
20260905130031 24 0.0 0.0 0.00 0.00 0.00 95 1014.4
20260905124537 23 0.0 0.0 0.00 0.00 0.00 95 1014.4
20260905123009 23 0.0 0.0 0.00 0.00 0.00 95 1014.4
20260905121508 22 0.0 0.0 0.00 0.00 0.00 95 1014.2
20260905120106 22 0.0 0.0 0.00 0.00 0.00 95 1014.1
20260905114550 22 0.0 0.0 0.00 0.00 0.00 95 1014.2
20260905113036 22 0.0 0.0 0.00 0.00 0.00 95 1014.0
20260905111536 22 0.0 0.0 0.00 0.00 0.00 95 1013.8
20260905110033 22 0.0 0.0 0.00 0.00 0.00 95 1013.7
20260905104532 22 0.0 0.0 0.00 0.00 0.00 95 1013.6
20260905103039 22 0.0 0.0 0.00 0.00 0.00 95 1013.6
20260905101533 23 0.0 0.0 0.00 0.00 0.00 95 1013.5
20260905100030 23 0.0 0.0 0.00 0.00 0.00 95 1013.6
20260905094535 23 0.0 0.0 0.00 0.00 0.00 95 1013.6
20260905093011 23 0.0 0.0 0.00 0.00 0.00 95 1013.5
20260905091524 23 0.0 0.0 0.00 0.00 0.00 95 1013.3
20260905090111 23 0.0 0.0 0.00 0.00 0.00 95 1013.4
20260905084600 23 0.0 0.0 0.00 0.00 0.00 95 1013.3
20260905083031 23 0.0 0.0 0.00 0.00 0.00 95 1013.2
20260905081530 23 0.0 0.0 0.00 0.00 0.00 94 1013.1
20260905080011 23 0.0 0.0 0.00 0.00 0.00 94 1013.0
20260905074514 23 0.0 0.0 0.00 0.00 0.00 94 1013.0
20260905073059 23 0.0 0.0 0.00 0.00 0.00 94 1012.9
20260905071551 23 0.0 0.0 0.00 0.00 0.00 94 1012.9
20260905070031 23 0.0 0.0 0.00 0.00 0.00 94 1012.8
20260905064531 23 0.0 0.0 0.00 0.00 0.00 94 1012.9
20260905063013 23 0.0 0.0 0.00 0.00 0.00 94 1012.9
20260905061513 23 0.0 0.0 0.00 0.00 0.00 94 1013.0
20260905060107 23 0.0 0.0 0.00 0.00 0.00 93 1013.0
20260905054555 23 0.0 0.0 0.00 0.00 0.00 93 1013.1
20260905053038 24 0.0 0.0 0.00 0.00 0.00 93 1013.2
20260905051540 24 0.0 0.0 0.00 0.00 0.00 93 1013.2
20260905050023 24 0.0 0.0 0.00 0.00 0.00 92 1013.3
20260905044522 25 0.0 0.0 0.00 0.00 0.00 92 1013.2
20260905043001 25 0.0 0.0 0.00 0.00 0.00 92 1013.4
20260905041607 25 0.0 0.0 0.00 0.00 0.00 91 1013.4
20260905040043 25 0.0 0.0 0.00 0.00 0.00 90 1013.4
20260905034553 25 0.0 0.0 0.00 0.00 0.00 90 1013.4
20260905033031 25 0.0 0.0 0.00 0.00 0.00 90 1013.7
20260905031525 26 0.0 0.0 0.00 0.00 0.00 89 1013.7
20260905030013 26 0.0 0.0 0.00 0.00 0.00 88 1013.8
20260905024506 26 0.0 0.0 0.00 0.00 0.00 87 1014.0
20260905023049 26 0.0 0.0 0.00 0.00 0.00 86 1014.1
20260905021552 27 0.0 0.0 0.00 0.00 0.00 85 1014.0
20260905020036 27 0.0 0.0 0.00 0.00 0.00 83 1014.0
20260905014536 27 0.0 0.0 0.00 0.00 0.00 82 1014.0
20260905013013 27 0.0 0.0 0.00 0.00 0.00 81 1013.8
20260905011511 28 0.0 0.0 0.00 0.00 0.00 79 1013.5
20260905010104 28 0.0 0.0 0.00 0.00 0.00 77 1013.3
20260905004554 29 0.0 0.0 0.00 0.00 0.00 74 1013.3
20260905003036 30 0.0 0.0 0.00 0.00 0.00 71 1013.3
20260905001548 31 0.0 0.0 0.00 0.00 0.00 67 1013.3
20260905000019 32 0.0 0.0 0.00 0.00 0.00 65 1013.2
20260904234524 32 0.0 0.0 0.00 0.00 0.00 66 1013.2
20260904233119 33 0.0 0.0 0.00 0.00 0.00 61 1013.2
20260904231607 34 0.0 0.0 0.00 0.00 0.00 58 1013.1
20260904230045 35 0.0 0.0 0.00 0.00 0.00 56 1013.1
20260904224549 35 0.0 0.0 0.00 0.00 0.00 55 1012.8
20260904223025 35 0.0 0.0 0.00 0.00 0.00 54 1012.7
20260904221524 35 0.0 0.0 0.00 0.00 0.00 56 1012.6
20260904220007 35 0.0 0.0 0.00 0.00 0.00 56 1012.6
20260904214505 34 0.0 0.0 0.00 0.00 0.00 57 1012.8
20260904213047 35 0.0 0.0 0.00 0.00 0.00 55 1012.7
20260904211549 35 0.0 0.0 0.00 0.00 0.00 53 1012.8
20260904210044 35 0.0 0.0 0.00 0.00 0.00 55 1012.8
20260904204534 35 0.0 0.0 0.00 0.00 0.00 55 1012.9
20260904203035 35 0.0 0.0 0.00 0.00 0.00 53 1013.1
20260904201528 35 0.0 0.0 0.00 0.00 0.00 56 1013.3
20260904200026 35 0.0 0.0 0.00 0.00 0.00 52 1013.6
20260904194523 35 0.0 0.0 0.00 0.00 0.00 55 1013.7
20260904193020 34 0.0 0.0 0.00 0.00 0.00 59 1014.1
20260904191518 33 0.0 0.0 0.00 0.00 0.00 59 1014.5
20260904190106 34 0.0 0.0 0.00 0.00 0.00 57 1014.6
20260904184559 34 0.0 0.0 0.00 0.00 0.00 58 1014.8
20260904183039 33 0.0 0.0 0.00 0.00 0.00 58 1014.9